| time (UTC) | temp C | wind direction | speed KPH | gust KPH | rain 1hr cm | rain 24hr cm | rain mn cm | humidity % | barometer mb |
| 20260504050024 | 10 | 178 | 6.4 | 0.0 | 0.00 | 0.00 | 0.00 | 100 | 1006.6 |
| 20260504044520 | 10 | 178 | 6.4 | 0.0 | 0.00 | 0.00 | 0.00 | 100 | 1006.8 |
| 20260504043007 | 10 | 178 | 9.7 | 0.0 | 0.00 | 0.00 | 0.00 | 100 | 1006.9 |
| 20260504041658 | 10 | 178 | 8.0 | 0.0 | 0.00 | 0.00 | 0.00 | 100 | 1007.1 |
| 20260504040149 | 10 | 178 | 8.0 | 0.0 | 0.00 | 0.00 | 0.00 | 100 | 1007.1 |
| 20260504034639 | 10 | 178 | 8.0 | 0.0 | 0.00 | 0.00 | 0.03 | 100 | 1007.0 |
| 20260504033029 | 10 | 178 | 9.7 | 0.0 | 0.00 | 0.00 | 0.03 | 100 | 1007.2 |
| 20260504031521 | 10 | 178 | 8.0 | 0.0 | 0.00 | 0.00 | 0.03 | 100 | 1007.4 |
| 20260504030014 | 10 | 178 | 6.4 | 0.0 | 0.00 | 0.00 | 0.03 | 100 | 1007.5 |
| 20260504024702 | 10 | 178 | 8.0 | 0.0 | 0.00 | 0.00 | 0.03 | 100 | 1007.5 |
| 20260504023050 | 10 | 188 | 3.2 | 0.0 | 0.00 | 0.00 | 0.03 | 100 | 1007.6 |
| 20260504021543 | 9 | 291 | 0.0 | 0.0 | 0.00 | 0.00 | 0.03 | 100 | 1007.8 |
| 20260504020043 | 9 | 291 | 1.6 | 0.0 | 0.00 | 0.00 | 0.03 | 100 | 1007.8 |
| 20260504014533 | 9 | 291 | 4.8 | 0.0 | 0.00 | 0.00 | 0.03 | 100 | 1008.1 |
| 20260504013029 | 8 | 294 | 3.2 | 0.0 | 0.00 | 0.00 | 0.03 | 100 | 1008.1 |
| 20260504011604 | 8 | 295 | 6.4 | 0.0 | 0.00 | 0.00 | 0.03 | 100 | 1008.3 |
| 20260504010053 | 9 | 302 | 12.9 | 0.0 | 0.00 | 0.00 | 0.03 | 100 | 1008.5 |
| 20260504004615 | 11 | 306 | 12.9 | 0.0 | 0.00 | 0.00 | 0.00 | 13 | 1008.1 |
| 20260504003138 | 11 | 306 | 11.3 | 0.0 | 0.00 | 0.00 | 0.00 | 50 | 1008.2 |
| 20260504001527 | 11 | 303 | 1.6 | 0.0 | 0.00 | 0.00 | 0.00 | 54 | 1007.9 |
| 20260504000018 | 11 | 11 | 0.0 | 0.0 | 0.00 | 0.00 | 0.00 | 52 | 1007.5 |
| 20260503234508 | 12 | 10 | 0.0 | 0.0 | 0.00 | 0.00 | 0.00 | 52 | 1007.3 |
| 20260503233102 | 12 | 11 | 3.2 | 0.0 | 0.00 | 0.00 | 0.00 | 54 | 1007.0 |
| 20260503231550 | 11 | 10 | 3.2 | 0.0 | 0.00 | 0.00 | 0.00 | 53 | 1007.1 |
| 20260503230100 | 11 | 10 | 0.0 | 0.0 | 0.00 | 0.00 | 0.00 | 54 | 1006.9 |
| 20260503224633 | 11 | 10 | 1.6 | 0.0 | 0.00 | 0.00 | 0.00 | 54 | 1007.5 |
| 20260503223023 | 11 | 346 | 8.0 | 0.0 | 0.00 | 0.00 | 0.00 | 54 | 1008.1 |
| 20260503221513 | 10 | 333 | 6.4 | 0.0 | 0.00 | 0.00 | 0.00 | 53 | 1007.9 |
| 20260503220004 | 11 | 26 | 1.6 | 0.0 | 0.00 | 0.00 | 0.00 | 51 | 1007.8 |
| 20260503214558 | 11 | 26 | 1.6 | 0.0 | 0.00 | 0.00 | 0.00 | 54 | 1007.7 |
| 20260503213045 | 11 | 26 | 1.6 | 0.0 | 0.00 | 0.00 | 0.00 | 55 | 1007.6 |
| 20260503211536 | 10 | 26 | 1.6 | 0.0 | 0.00 | 0.00 | 0.00 | 55 | 1007.7 |
| 20260503210129 | 10 | 26 | 3.2 | 0.0 | 0.00 | 0.00 | 0.00 | 55 | 1007.7 |
| 20260503204519 | 10 | 26 | 1.6 | 0.0 | 0.00 | 0.00 | 0.00 | 54 | 1008.0 |
| 20260503203030 | 9 | 26 | 3.2 | 0.0 | 0.00 | 0.00 | 0.00 | 54 | 1008.1 |
| 20260503201501 | 9 | 26 | 3.2 | 0.0 | 0.00 | 0.00 | 0.00 | 55 | 1008.4 |
| 20260503200053 | 9 | 19 | 4.8 | 0.0 | 0.00 | 0.00 | 0.00 | 53 | 1008.7 |
| 20260503194545 | 9 | 18 | 4.8 | 0.0 | 0.00 | 0.00 | 0.00 | 53 | 1008.9 |
| 20260503193038 | 9 | 11 | 4.8 | 0.0 | 0.00 | 0.00 | 0.00 | 53 | 1009.2 |
| 20260503191525 | 9 | 11 | 3.2 | 0.0 | 0.00 | 0.00 | 0.00 | 53 | 1009.5 |
| 20260503190034 | 9 | 11 | 3.2 | 0.0 | 0.00 | 0.00 | 0.00 | 53 | 1009.7 |
| 20260503184511 | 9 | 11 | 3.2 | 0.0 | 0.00 | 0.00 | 0.00 | 53 | 1009.7 |
| 20260503183103 | 9 | 11 | 3.2 | 0.0 | 0.00 | 0.00 | 0.00 | 54 | 1009.9 |
| 20260503181650 | 9 | 11 | 3.2 | 0.0 | 0.00 | 0.00 | 0.00 | 54 | 1010.0 |
| 20260503180143 | 9 | 5 | 4.8 | 0.0 | 0.00 | 0.00 | 0.00 | 55 | 1010.0 |
| 20260503174631 | 8 | 5 | 4.8 | 0.0 | 0.00 | 0.00 | 0.00 | 55 | 1010.1 |
| 20260503173022 | 9 | 360 | 4.8 | 0.0 | 0.00 | 0.00 | 0.00 | 54 | 1010.3 |
| 20260503171512 | 8 | 349 | 4.8 | 0.0 | 0.00 | 0.00 | 0.00 | 54 | 1010.4 |
| 20260503130143 | 5 | 300 | 11.3 | 0.0 | 0.00 | 0.00 | 0.00 | 100 | 1012.4 |
| 20260503100157 | 6 | 302 | 12.9 | 0.0 | 0.00 | 0.00 | 0.00 | 100 | 1011.4 |
| 20260503080146 | 6 | 311 | 12.9 | 0.0 | 0.00 | 0.00 | 0.00 | 100 | 1011.9 |
| 20260503071525 | 6 | 318 | 12.9 | 0.0 | 0.00 | 0.00 | 0.00 | 14 | 1011.6 |
| 20260503060140 | 6 | 315 | 11.3 | 0.0 | 0.00 | 0.00 | 0.00 | 2 | 1011.9 |
| 20260503054547 | 6 | 313 | 12.9 | 0.0 | 0.00 | 0.00 | 0.00 | 4 | 1011.9 |